Location: Bailen
(14.1842°N, 120.7958°E)
Time: 18:42:01
(UTC+00:00)

Meteor 1-23 Rocket - Pass Details

Date: 12 January 2026
Orbit: 840 x 883 km, 81.3° (Epoch: 17 February)

Event Time Altitude Azimuth Distance (km) Brightness Sun altitude
Rises 21:41:07 0° 350° (N) 3,386 7.0 -10.7°
Reaches altitude 10° 21:43:32 10° 348° (NNW) 2,452 6.3 -10.1°
Maximum altitude 21:49:02 68° 266° (W) 905 4.2 -8.9°
Drops below altitude 10° 21:54:34 10° 183° (S) 2,467 6.9 -7.6°
Sets 21:57:01 0° 181° (S) 3,407 7.6 -7.0°
